Terug naar catalogus

DMSP 5D-2 F11 DEB

ActiefPO
NORAD 28319·DEBRIS·🇺🇸 United States

Gelanceerd Nov 28, 1991 vanaf Vandenberg Space Force Base

Loading…

Volgende Passages (komende 24 uur)

TLE

VersSource: Space-Track

Epoch: Sep 14, 2026, 13:59 UTC

1 28319U 91082AG  26257.58274373  .00036462  00000-0  29604-2 0  9998
2 28319  98.7597  25.1132 0016689 262.8914  97.0408 14.99414388165658

Volg DMSP 5D-2 F11 DEB in realtime met AllMySat

Download on the App Store